Weather History for Guthrie, OK

Change the Weather History Date:

Saturday, May 25, 2013

  Actual Average Record
Temperature  
Mean Temperature 73 °F -  
Max Temperature 82 °F 84 °F 100 °F (2006)
Min Temperature 64 °F 60 °F 45 °F (1966)
Cooling Degree Days 8    
Growing Degree Days 23 (Base 50)    
Moisture  
Dew Point 64 °F    
Average Humidity 71    
Maximum Humidity 87    
Minimum Humidity 58    
Precipitation  
Precipitation 0.00 in - - ()
Sea Level Pressure  
Sea Level Pressure 30.07 in    
Wind  
Wind Speed 12 mph (South)    
Max Wind Speed 20 mph    
Max Gust Speed 28 mph    
Visibility 9 miles    
Events      
Averages and records for this station are not official NWS values.
T = Trace of Precipitation, MM = Missing Value Source: NWS Daily Summary

Daily Weather History Graph

Daily Weather History Graph

Search for Another Location

Airport:

Trip Planner

Search our weather history database for the weather conditions in past years. The results will help you decide how hot, cold, wet, or windy it might be!

Date:

Astronomy

May. 25, 2013 Rise Set
Actual Time 6:17 AM CDT 8:36 PM CDT
Civil Twilight 5:48 AM CDT 9:05 PM CDT
Nautical Twilight 5:12 AM CDT 9:41 PM CDT
Astronomical Twilight 4:33 AM CDT 10:20 PM CDT
Moon 9:25 PM CDT (5/25) 6:45 AM CDT (5/25)
Length of Visible Light 15h 17m
Length of Day
14h 18m
Full, 100% of the Moon is Illuminated
May 25
Full
May 31
Last Quarter
Jun 8
New
Jun 16
First Quarter
Jun 23
Full

Hourly Weather History & Observations

Time (CDT) Temp. Heat Index Dew Point Humidity Pressure Visibility Wind Dir Wind Speed Gust Speed Precip Events Conditions
12:53 AM 73.0 °F - 66.9 °F 81% 30.10 in 8.0 mi South 10.4 mph - N/A   Clear
1:53 AM 72.0 °F - 64.9 °F 78% 30.11 in 9.0 mi South 12.7 mph - N/A   Mostly Cloudy
2:53 AM 71.1 °F - 62.1 °F 73% 30.11 in 10.0 mi South 12.7 mph - N/A   Mostly Cloudy
3:53 AM 66.9 °F - 61.0 °F 81% 30.10 in 10.0 mi North - - N/A   Clear
4:53 AM 64.9 °F - 61.0 °F 87% 30.08 in 10.0 mi North - - N/A   Clear
5:53 AM 64.9 °F - 61.0 °F 87% 30.11 in 10.0 mi SE 5.8 mph - N/A   Clear
6:53 AM 64.9 °F - 61.0 °F 87% 30.12 in 8.0 mi SE 5.8 mph - N/A   Clear
7:53 AM 68.0 °F - 62.1 °F 81% 30.12 in 9.0 mi SE 6.9 mph - N/A   Clear
8:53 AM 71.1 °F - 63.0 °F 75% 30.12 in 9.0 mi SSE 9.2 mph 18.4 mph N/A   Clear
9:53 AM 73.9 °F - 64.0 °F 71% 30.12 in 10.0 mi SSE 12.7 mph - N/A   Clear
10:53 AM 75.9 °F - 64.0 °F 67% 30.12 in 10.0 mi South 12.7 mph - N/A   Partly Cloudy
11:21 AM 75.2 °F - 64.4 °F 69% 30.14 in 7.0 mi South 19.6 mph 24.2 mph N/A   Mostly Cloudy
11:28 AM 75.2 °F - 64.4 °F 69% 30.13 in 7.0 mi South 16.1 mph 24.2 mph N/A   Mostly Cloudy
11:53 AM 79.0 °F - 64.9 °F 62% 30.10 in 8.0 mi South 17.3 mph 23.0 mph N/A   Mostly Cloudy
12:53 PM 80.1 °F 82.3 °F 66.9 °F 64% 30.09 in 8.0 mi South 16.1 mph 25.3 mph N/A   Scattered Clouds
1:53 PM 80.1 °F 82.3 °F 66.9 °F 64% 30.08 in 7.0 mi South 17.3 mph 26.5 mph N/A   Mostly Cloudy
2:53 PM 80.1 °F 82.3 °F 66.9 °F 64% 30.06 in 8.0 mi SSW 16.1 mph - N/A   Mostly Cloudy
3:53 PM 82.0 °F 84.5 °F 66.9 °F 60% 30.05 in 8.0 mi South 16.1 mph 21.9 mph N/A   Mostly Cloudy
4:53 PM 82.0 °F 84.1 °F 66.0 °F 58% 30.03 in 9.0 mi South 17.3 mph 24.2 mph N/A   Scattered Clouds
5:53 PM 80.1 °F 81.9 °F 64.9 °F 60% 30.01 in 7.0 mi SSE 16.1 mph - N/A   Partly Cloudy
6:53 PM 80.1 °F 82.1 °F 66.0 °F 62% 30.01 in 9.0 mi South 16.1 mph 25.3 mph N/A   Partly Cloudy
7:53 PM 78.1 °F - 66.0 °F 66% 29.98 in 9.0 mi South 16.1 mph 27.6 mph N/A   Partly Cloudy
8:53 PM 73.9 °F - 61.0 °F 64% 29.97 in 10.0 mi South 13.8 mph 23.0 mph N/A   Clear
9:53 PM 72.0 °F - 61.0 °F 68% 29.98 in 10.0 mi SSE 10.4 mph - N/A   Clear
10:53 PM 71.1 °F - 63.0 °F 75% 30.02 in 10.0 mi South 12.7 mph - N/A   Clear
11:53 PM 71.1 °F - 63.0 °F 75% 30.01 in 10.0 mi South 12.7 mph - N/A   Clear